Location: Unspecified
(0.0000°N, 0.0000°E)
Time: 13:20:08
(UTC+00:00)

Vanguard 1 Rocket - Pass Details

Date: 14 February 2023
Orbit: 652 x 4223 km, 34.3° (Epoch: 30 March)

Event Time Altitude Azimuth Distance (km) Brightness Sun altitude
Rises 19:24:37 0° 287° (WNW) 7,651 13.2 -17.2°
Reaches altitude 10° 19:29:50 10° 281° (W) 6,949 12.9 -18.4°
Maximum altitude 19:53:18 45° 215° (SW) 5,019 11.3 -24.1°
Drops below altitude 10° 20:14:30 10° 146° (SSE) 6,235 11.4 -29.3°
Sets 20:18:59 0° 139° (SE) 6,841 11.6 -30.3°
